Location: Burbank
(38.7788°N, 114.0429°W)
Time: 12:05:42
(UTC+00:00)

Vanguard 2 Rocket - Pass Details

Date: 22 May 2026
Orbit: 553 x 3286 km, 32.9° (Epoch: 11 June)

Event Time Altitude Azimuth Distance (km) Brightness Sun altitude
Rises 14:18:46 0° 198° (SSW) 3,546 9.7 21.4°
Reaches altitude 10° 14:21:42 10° 180° (S) 2,926 9.5 21.9°
Maximum altitude 14:26:50 20° 135° (SE) 2,800 10.1 22.9°
Drops below altitude 10° 14:34:02 10° 94° (E) 4,315 12.1 24.3°
Sets 14:39:42 0° 81° (E) 5,883 12.4 25.4°
